Regional Weather Roundup
Issued by NWS

Home | Current Version | Previous Version | Text Only | Print | Product List | Glossary On
Versions: 1 2 3 4 5 6 7 8 9 10 11 12 13 14 15 16 17 18 19 20 21 22 23 24 25 26 27 28 29 30 31 32 33 34 35 36 37 38 39 40 41 42 43 44 45 46 47 48 49 50
985
ASUS45 KREV 060810
RWRNV
NEVADA REGIONAL WEATHER ROUNDUP
NATIONAL WEATHER SERVICE RENO NV
1200 AM PST SAT FEB 06 2016

NOTE: "FAIR" INDICATES FEW OR NO CLOUDS BELOW 12,000 FEET WITH NO
SIGNIFICANT WEATHER AND/OR OBSTRUCTIONS TO VISIBILITY.

NVZ001-003-004-060900-
WESTERN NEVADA

CITY           SKY/WX    TMP DP  RH WIND       PRES   REMARKS
RENO           PTCLDY    32  26  78 W3        30.48F
CARSON CITY    FAIR      27  25  93 CALM      30.48F
MINDEN         FAIR      25  25 100 CALM      30.49F
SLIDE MTN        N/A     32   9  37 NW6         N/A
PYRAMID LAKE     N/A     36 N/A N/A W7          N/A
FALLON         PTCLDY    26  23  88 S5        30.50S
LOVELOCK       PTCLDY    25  22  88 CALM      30.50R
HAWTHORNE      CLEAR    N/A N/A N/A CALM      30.51S
$$

NVZ002-CAZ072-073-060900-
NORTHERN AND CENTRAL SIERRA

CITY           SKY/WX    TMP DP  RH WIND       PRES   REMARKS
S. LAKE TAHOE  PTCLDY    23  20  88 CALM      30.46F
TRUCKEE        PTCLDY    21  19  93 CALM      30.48S FOG
SQUAW VLY 8000   N/A     32  16  51 SW9         N/A
SUSANVILLE     CLEAR    N/A N/A N/A CALM      30.49S
BLUE CANYON    MOCLDY    43  24  47 E3        30.47S
MAMMOTH LAKES  FAIR      19  14  79 CALM      30.52R
BRIDGEPORT     FAIR      21  15  78 CALM      30.49R
$$

NVZ030-031-036-060900-
NORTHERN NEVADA

CITY           SKY/WX    TMP DP  RH WIND       PRES   REMARKS
ELKO           PTCLDY     8   4  83 CALM      30.51R
WINNEMUCCA     PTCLDY    25  22  88 CALM      30.48S
WENDOVER       PTCLDY    23  18  80 CALM      30.52S
$$

NVZ035-037-060900-
CENTRAL NEVADA

CITY           SKY/WX    TMP DP  RH WIND       PRES   REMARKS
ELY            PTCLDY     6   1  80 S17       30.49S WCI -13
EUREKA           N/A      1   1 100 SW9       30.50R
$$

NVZ013-014-060900-
SOUTH CENTRAL NEVADA

CITY           SKY/WX    TMP DP  RH WIND       PRES   REMARKS
TONOPAH        PTCLDY    16  10  77 N13       30.51R
$$

NVZ017-020-022-060900-
SOUTHERN NEVADA

CITY           SKY/WX    TMP DP  RH WIND       PRES   REMARKS
LAS VEGAS      CLEAR     44  26  49 S5        30.43S
N. LAS VEGAS   CLEAR     45  25  45 N9        30.46S
NELLIS AFB     CLEAR     42  28  57 N2        30.47S
HENDERSON      CLEAR     39  26  59 CALM      30.48S
MERCURY        CLEAR     40  23  50 NE14      30.46S
$$




USA.gov is the U.S. government's official web portal to all federal, state and local government web resources and services.